Regional Weather Roundup
Issued by NWS

Home | Current Version | Previous Version | Graphics & Text | Print | Product List | Glossary On
Versions: 1 2 3 4 5 6 7 8 9 10 11 12 13 14 15 16 17 18 19 20 21 22 23 24 25 26 27 28 29 30 31 32 33 34 35 36 37 38 39 40 41 42 43 44 45 46 47 48 49 50
000
ASUS43 KFSD 250110
RWRSD

WEATHER ROUNDUP FOR SOUTH DAKOTA
NATIONAL WEATHER SERVICE SIOUX FALLS SD
800 PM CDT SAT JUN 24 2017

NOTE: "FAIR" INDICATES FEW OR NO CLOUDS BELOW 12,000 FEET WITH NO
SIGNIFICANT WEATHER AND/OR OBSTRUCTIONS TO VISIBILITY.


SDZ001>005-009-010-012>017-250200-
NORTHWEST AND NORTH CENTRAL SOUTH DAKOTA

CITY           SKY/WX    TMP DP  RH WIND       PRES   REMARKS
BUFFALO          N/A     69  31  24 N16G25    30.22R
FAITH            N/A     67  32  27 N16       30.25R
MOBRIDGE       SUNNY     66  37  34 N14G22    30.21R
$$

SDZ012>016-024>037-041>051-057-063-072>074-250200-
SOUTHWEST AND SOUTH CENTRAL SOUTH DAKOTA

CITY           SKY/WX    TMP DP  RH WIND       PRES   REMARKS
RAPID CTY ARPT SUNNY     72  29  20 N14G28    30.26R
PIERRE         SUNNY     67  37  33 N18       30.20R
CUSTER         SUNNY     64  24  21 W7        30.34S
ELLSWORTH AFB  MOSUNNY   72  30  21 N16G23    30.26R
PHILIP         SUNNY     73  29  19 N17       30.22R
PINE RIDGE     SUNNY     72  35  25 N9        30.26R
SPEARFISH      FAIR      66  32  28 NW12G20   30.31R
WINNER         FAIR      73  31  21 N15G22    30.20R
$$

SDZ004>011-016>023-039-040-250200-
NORTHEAST SOUTH DAKOTA

CITY           SKY/WX    TMP DP  RH WIND       PRES   REMARKS
ABERDEEN       CLOUDY    60  44  55 NW18G25   30.20R
WATERTOWN      CLOUDY    58  43  57 NW22G28   30.16R
BROOKINGS      MOSUNNY   62  41  46 NW18      30.16R
SISSETON         N/A     60  46  59 NW23G30   30.14R
$$

SDZ017-020-022-023-036>040-048>070-250200-
SOUTHEAST SOUTH DAKOTA

CITY           SKY/WX    TMP DP  RH WIND       PRES   REMARKS
SIOUX FALLS    MOSUNNY   66  42  41 NW17G24   30.14R
HURON          SUNNY     64  41  42 N20       30.18R
CHAMBERLAIN    SUNNY     71  37  28 NW14G21   30.19R
MITCHELL       SUNNY     68  38  33 N16G26    30.17R
YANKTON        SUNNY     70  35  27 NW17      30.15R
$$

ABBREVIATIONS USED IN REMARKS
   TC - TEMPERATURE IN CELSIUS
  WCI - WIND CHILL INDEX
   HX - HEAT INDEX
  VSB - VISIBILITY





USA.gov is the U.S. government's official web portal to all federal, state and local government web resources and services.